| time (UTC) | temp F | wind direction | speed MPH | gust MPH | rain 1hr in | rain 24hr in | rain mn in | humidity % | barometer mb |
| 20260831213016 | 69 | 338 | 2.0 | 4.0 | 0.00 | 0.06 | 0.06 | 70 | 1015.8 |
| 20260831212516 | 69 | 338 | 3.0 | 5.0 | 0.00 | 0.06 | 0.06 | 67 | 1015.8 |
| 20260831212016 | 70 | 338 | 2.0 | 3.0 | 0.00 | 0.06 | 0.06 | 66 | 1015.7 |
| 20260831211516 | 70 | 338 | 2.0 | 4.0 | 0.00 | 0.06 | 0.06 | 64 | 1015.7 |
| 20260831211016 | 71 | 338 | 2.0 | 4.0 | 0.00 | 0.06 | 0.06 | 64 | 1015.5 |
| 20260831210516 | 71 | 315 | 2.0 | 4.0 | 0.00 | 0.06 | 0.06 | 65 | 1015.4 |
| 20260831210016 | 71 | 315 | 2.0 | 4.0 | 0.00 | 0.06 | 0.06 | 65 | 1015.4 |
| 20260831205516 | 70 | 338 | 2.0 | 4.0 | 0.00 | 0.06 | 0.06 | 66 | 1015.3 |
| 20260831205016 | 70 | 0 | 4.0 | 5.0 | 0.00 | 0.06 | 0.06 | 68 | 1015.3 |
| 20260831204516 | 70 | 338 | 3.0 | 7.0 | 0.00 | 0.06 | 0.06 | 63 | 1015.3 |
| 20260831204016 | 70 | 0 | 2.0 | 4.0 | 0.00 | 0.06 | 0.06 | 68 | 1015.3 |
| 20260831203516 | 69 | 315 | 1.0 | 1.0 | 0.00 | 0.06 | 0.06 | 68 | 1015.3 |
| 20260831203016 | 69 | 338 | 2.0 | 4.0 | 0.00 | 0.06 | 0.06 | 67 | 1015.3 |
| 20260831202516 | 69 | 338 | 2.0 | 6.0 | 0.00 | 0.06 | 0.06 | 66 | 1015.3 |
| 20260831202016 | 69 | 315 | 2.0 | 4.0 | 0.00 | 0.06 | 0.06 | 66 | 1015.3 |
| 20260831201516 | 70 | 315 | 2.0 | 5.0 | 0.00 | 0.06 | 0.06 | 65 | 1015.3 |
| 20260831201016 | 70 | 338 | 2.0 | 6.0 | 0.00 | 0.06 | 0.06 | 66 | 1015.2 |
| 20260831200516 | 70 | 338 | 4.0 | 6.0 | 0.00 | 0.06 | 0.06 | 64 | 1015.3 |
| 20260831200016 | 70 | 0 | 4.0 | 9.0 | 0.00 | 0.06 | 0.06 | 63 | 1015.2 |
| 20260831195516 | 70 | 0 | 3.0 | 5.0 | 0.00 | 0.06 | 0.06 | 65 | 1015.1 |
| 20260831195016 | 70 | 338 | 4.0 | 8.0 | 0.00 | 0.06 | 0.06 | 63 | 1015.2 |
| 20260831194516 | 71 | 0 | 4.0 | 8.0 | 0.00 | 0.06 | 0.06 | 65 | 1015.1 |
| 20260831194016 | 71 | 315 | 3.0 | 6.0 | 0.00 | 0.06 | 0.06 | 66 | 1015.0 |
| 20260831193516 | 71 | 315 | 2.0 | 3.0 | 0.00 | 0.06 | 0.06 | 67 | 1015.0 |
| 20260831193016 | 71 | 0 | 4.0 | 9.0 | 0.00 | 0.06 | 0.06 | 65 | 1014.9 |
| 20260831192516 | 71 | 315 | 2.0 | 4.0 | 0.00 | 0.06 | 0.06 | 65 | 1014.9 |
| 20260831192016 | 70 | 338 | 2.0 | 5.0 | 0.00 | 0.06 | 0.06 | 66 | 1014.8 |
| 20260831191516 | 70 | 338 | 3.0 | 6.0 | 0.00 | 0.06 | 0.06 | 66 | 1014.8 |
| 20260831191016 | 70 | 0 | 4.0 | 6.0 | 0.00 | 0.06 | 0.06 | 64 | 1014.7 |
| 20260831190516 | 71 | 338 | 4.0 | 8.0 | 0.00 | 0.06 | 0.06 | 63 | 1014.7 |
| 20260831190016 | 71 | 315 | 2.0 | 4.0 | 0.00 | 0.06 | 0.06 | 64 | 1014.6 |
| 20260831185516 | 70 | 315 | 2.0 | 4.0 | 0.00 | 0.06 | 0.06 | 64 | 1014.5 |
| 20260831185016 | 70 | 338 | 3.0 | 5.0 | 0.00 | 0.06 | 0.06 | 64 | 1014.5 |
| 20260831184516 | 71 | 315 | 3.0 | 5.0 | 0.00 | 0.06 | 0.06 | 63 | 1014.5 |
| 20260831184016 | 71 | 338 | 3.0 | 6.0 | 0.00 | 0.06 | 0.06 | 64 | 1014.4 |
| 20260831183516 | 71 | 315 | 3.0 | 7.0 | 0.00 | 0.06 | 0.06 | 65 | 1014.4 |
| 20260831183016 | 71 | 338 | 2.0 | 4.0 | 0.00 | 0.06 | 0.06 | 65 | 1014.3 |
| 20260831182516 | 70 | 315 | 2.0 | 4.0 | 0.00 | 0.06 | 0.06 | 66 | 1014.4 |
| 20260831182016 | 70 | 338 | 3.0 | 5.0 | 0.00 | 0.06 | 0.06 | 63 | 1014.4 |
| 20260831181516 | 70 | 338 | 3.0 | 9.0 | 0.00 | 0.06 | 0.06 | 62 | 1014.2 |
| 20260831181016 | 70 | 315 | 2.0 | 7.0 | 0.00 | 0.06 | 0.06 | 61 | 1014.3 |
| 20260831180516 | 70 | 0 | 4.0 | 6.0 | 0.00 | 0.06 | 0.06 | 63 | 1014.2 |
| 20260831180016 | 70 | 0 | 4.0 | 9.0 | 0.00 | 0.06 | 0.06 | 64 | 1014.3 |
| 20260831175516 | 70 | 338 | 3.0 | 5.0 | 0.00 | 0.06 | 0.06 | 62 | 1014.3 |
| 20260831175016 | 70 | 315 | 3.0 | 5.0 | 0.00 | 0.06 | 0.06 | 61 | 1014.2 |
| 20260831174516 | 70 | 315 | 3.0 | 6.0 | 0.00 | 0.06 | 0.06 | 61 | 1014.3 |
| 20260831174016 | 70 | 315 | 3.0 | 6.0 | 0.00 | 0.06 | 0.06 | 61 | 1014.3 |
| 20260831173516 | 71 | 338 | 4.0 | 8.0 | 0.00 | 0.06 | 0.06 | 62 | 1014.3 |
| 20260831173016 | 70 | 338 | 3.0 | 6.0 | 0.00 | 0.06 | 0.06 | 63 | 1014.1 |
| 20260831172516 | 70 | 338 | 3.0 | 6.0 | 0.00 | 0.06 | 0.06 | 62 | 1014.0 |
| 20260831172016 | 70 | 338 | 3.0 | 7.0 | 0.00 | 0.06 | 0.06 | 62 | 1014.1 |
| 20260831171516 | 70 | 315 | 2.0 | 6.0 | 0.00 | 0.06 | 0.06 | 63 | 1014.0 |
| 20260831171016 | 70 | 338 | 3.0 | 8.0 | 0.00 | 0.06 | 0.06 | 60 | 1014.2 |
| 20260831170516 | 70 | 0 | 4.0 | 8.0 | 0.00 | 0.06 | 0.06 | 61 | 1014.1 |
| 20260831170016 | 70 | 338 | 4.0 | 8.0 | 0.00 | 0.06 | 0.06 | 59 | 1014.0 |
| 20260831165516 | 70 | 338 | 3.0 | 5.0 | 0.00 | 0.06 | 0.06 | 60 | 1014.1 |
| 20260831165016 | 70 | 315 | 2.0 | 5.0 | 0.00 | 0.06 | 0.06 | 58 | 1014.0 |
| 20260831164516 | 70 | 338 | 3.0 | 9.0 | 0.00 | 0.06 | 0.06 | 60 | 1014.0 |
| 20260831164016 | 70 | 315 | 3.0 | 8.0 | 0.00 | 0.06 | 0.06 | 58 | 1014.0 |
| 20260831163516 | 70 | 315 | 3.0 | 10.0 | 0.00 | 0.06 | 0.06 | 59 | 1013.9 |
| 20260831163016 | 70 | 315 | 3.0 | 7.0 | 0.00 | 0.06 | 0.06 | 60 | 1014.1 |
| 20260831162516 | 69 | 315 | 3.0 | 6.0 | 0.00 | 0.06 | 0.06 | 60 | 1014.1 |
| 20260831162016 | 70 | 338 | 3.0 | 6.0 | 0.00 | 0.06 | 0.06 | 62 | 1014.0 |
| 20260831161516 | 69 | 315 | 3.0 | 6.0 | 0.00 | 0.06 | 0.06 | 62 | 1014.0 |
| 20260831161016 | 69 | 338 | 3.0 | 6.0 | 0.00 | 0.06 | 0.06 | 63 | 1014.0 |
| 20260831160516 | 69 | 315 | 3.0 | 8.0 | 0.00 | 0.06 | 0.06 | 63 | 1014.0 |
| 20260831160016 | 69 | 0 | 4.0 | 7.0 | 0.00 | 0.06 | 0.06 | 65 | 1013.8 |
| 20260831155516 | 69 | 315 | 2.0 | 4.0 | 0.00 | 0.06 | 0.06 | 66 | 1013.8 |
| 20260831155016 | 69 | 315 | 2.0 | 4.0 | 0.00 | 0.06 | 0.06 | 65 | 1014.0 |
| 20260831154516 | 69 | 315 | 3.0 | 6.0 | 0.00 | 0.06 | 0.06 | 65 | 1013.9 |
| 20260831154016 | 69 | 315 | 2.0 | 5.0 | 0.00 | 0.06 | 0.06 | 67 | 1013.9 |
| 20260831153516 | 68 | 315 | 2.0 | 4.0 | 0.00 | 0.06 | 0.06 | 65 | 1013.9 |
| 20260831153016 | 68 | 293 | 2.0 | 4.0 | 0.00 | 0.06 | 0.06 | 64 | 1013.9 |
| 20260831152516 | 68 | 315 | 3.0 | 6.0 | 0.00 | 0.06 | 0.06 | 66 | 1013.8 |
| 20260831152016 | 68 | 315 | 2.0 | 4.0 | 0.00 | 0.06 | 0.06 | 68 | 1013.8 |
| 20260831151516 | 68 | 315 | 2.0 | 4.0 | 0.00 | 0.06 | 0.06 | 68 | 1013.9 |
| 20260831151016 | 68 | 315 | 2.0 | 7.0 | 0.00 | 0.06 | 0.06 | 70 | 1014.0 |
| 20260831150516 | 68 | 0 | 4.0 | 8.0 | 0.00 | 0.06 | 0.06 | 68 | 1014.0 |
| 20260831150016 | 68 | 315 | 3.0 | 11.0 | 0.00 | 0.06 | 0.06 | 67 | 1014.0 |
| 20260831145516 | 67 | 338 | 3.0 | 11.0 | 0.00 | 0.06 | 0.06 | 68 | 1014.1 |
| 20260831145016 | 67 | 338 | 2.0 | 5.0 | 0.00 | 0.06 | 0.06 | 69 | 1014.0 |
| 20260831144516 | 67 | 338 | 3.0 | 6.0 | 0.00 | 0.06 | 0.06 | 70 | 1013.9 |
| 20260831144016 | 67 | 338 | 3.0 | 5.0 | 0.00 | 0.06 | 0.06 | 74 | 1013.9 |
| 20260831143516 | 67 | 315 | 3.0 | 6.0 | 0.00 | 0.06 | 0.06 | 71 | 1013.9 |
| 20260831143016 | 67 | 338 | 3.0 | 6.0 | 0.00 | 0.06 | 0.06 | 72 | 1014.0 |
| 20260831142516 | 67 | 0 | 3.0 | 6.0 | 0.00 | 0.06 | 0.06 | 73 | 1014.0 |
| 20260831142016 | 66 | 338 | 4.0 | 6.0 | 0.00 | 0.06 | 0.06 | 71 | 1014.0 |
| 20260831141516 | 66 | 338 | 5.0 | 8.0 | 0.00 | 0.06 | 0.06 | 70 | 1014.0 |
| 20260831141016 | 66 | 338 | 3.0 | 6.0 | 0.00 | 0.06 | 0.06 | 72 | 1013.9 |
| 20260831140516 | 66 | 338 | 4.0 | 9.0 | 0.00 | 0.06 | 0.06 | 72 | 1013.8 |
| 20260831140016 | 65 | 338 | 4.0 | 7.0 | 0.00 | 0.06 | 0.06 | 73 | 1013.8 |
| 20260831135516 | 65 | 315 | 2.0 | 6.0 | 0.00 | 0.06 | 0.06 | 73 | 1013.8 |
| 20260831135016 | 65 | 315 | 2.0 | 4.0 | 0.00 | 0.06 | 0.06 | 75 | 1013.7 |
| 20260831134516 | 65 | 315 | 2.0 | 3.0 | 0.00 | 0.06 | 0.06 | 76 | 1013.7 |
| 20260831134016 | 64 | 338 | 3.0 | 7.0 | 0.00 | 0.06 | 0.06 | 77 | 1013.6 |
| 20260831133516 | 64 | 338 | 3.0 | 6.0 | 0.00 | 0.06 | 0.06 | 77 | 1013.6 |
| 20260831133016 | 64 | 0 | 3.0 | 6.0 | 0.00 | 0.06 | 0.06 | 79 | 1013.6 |
| 20260831132516 | 64 | 0 | 3.0 | 6.0 | 0.00 | 0.06 | 0.06 | 80 | 1013.5 |
| 20260831132016 | 64 | 315 | 2.0 | 4.0 | 0.00 | 0.06 | 0.06 | 80 | 1013.4 |
| 20260831131516 | 63 | 315 | 2.0 | 5.0 | 0.00 | 0.06 | 0.06 | 82 | 1013.3 |
| 20260831131016 | 63 | 338 | 2.0 | 3.0 | 0.00 | 0.06 | 0.06 | 82 | 1013.3 |
| 20260831130516 | 63 | 315 | 2.0 | 4.0 | 0.00 | 0.06 | 0.06 | 83 | 1013.2 |
| 20260831130016 | 63 | 315 | 2.0 | 5.0 | 0.00 | 0.06 | 0.06 | 84 | 1013.3 |
| 20260831125516 | 63 | 338 | 3.0 | 6.0 | 0.00 | 0.06 | 0.06 | 84 | 1013.3 |
| 20260831125016 | 63 | 338 | 3.0 | 5.0 | 0.00 | 0.06 | 0.06 | 86 | 1013.3 |
| 20260831124516 | 62 | 0 | 2.0 | 4.0 | 0.00 | 0.06 | 0.06 | 86 | 1013.4 |
| 20260831124016 | 62 | 315 | 3.0 | 6.0 | 0.00 | 0.06 | 0.06 | 85 | 1013.3 |
| 20260831123516 | 62 | 315 | 2.0 | 4.0 | 0.00 | 0.06 | 0.06 | 87 | 1013.2 |
| 20260831123016 | 62 | 315 | 2.0 | 6.0 | 0.00 | 0.06 | 0.06 | 87 | 1013.2 |
| 20260831122516 | 62 | 315 | 3.0 | 5.0 | 0.00 | 0.06 | 0.06 | 88 | 1013.2 |
| 20260831122016 | 62 | 315 | 2.0 | 5.0 | 0.00 | 0.06 | 0.06 | 87 | 1013.1 |
| 20260831121516 | 61 | 0 | 2.0 | 5.0 | 0.00 | 0.06 | 0.06 | 91 | 1013.1 |
| 20260831121016 | 61 | 338 | 2.0 | 4.0 | 0.00 | 0.06 | 0.06 | 90 | 1013.0 |
| 20260831120516 | 61 | 338 | 2.0 | 5.0 | 0.00 | 0.06 | 0.06 | 92 | 1013.1 |
| 20260831120016 | 61 | 338 | 3.0 | 6.0 | 0.00 | 0.06 | 0.06 | 92 | 1013.0 |
| 20260831115516 | 61 | 338 | 3.0 | 6.0 | 0.00 | 0.06 | 0.06 | 93 | 1013.1 |
| 20260831115016 | 60 | 315 | 2.0 | 6.0 | 0.00 | 0.06 | 0.06 | 94 | 1013.1 |
| 20260831114516 | 60 | 315 | 2.0 | 4.0 | 0.00 | 0.06 | 0.06 | 95 | 1013.0 |
| 20260831114016 | 60 | 338 | 2.0 | 5.0 | 0.00 | 0.06 | 0.06 | 96 | 1013.0 |
| 20260831113516 | 60 | 338 | 2.0 | 5.0 | 0.00 | 0.06 | 0.06 | 96 | 1013.0 |
| 20260831113016 | 60 | 338 | 1.0 | 4.0 | 0.00 | 0.06 | 0.06 | 97 | 1012.9 |
| 20260831112516 | 60 | 315 | 1.0 | 4.0 | 0.00 | 0.06 | 0.06 | 97 | 1013.0 |
| 20260831112016 | 59 | 293 | 1.0 | 3.0 | 0.00 | 0.06 | 0.06 | 97 | 1012.8 |
| 20260831111516 | 59 | 315 | 1.0 | 2.0 | 0.00 | 0.06 | 0.06 | 98 | 1012.8 |
| 20260831111016 | 59 | 338 | 1.0 | 3.0 | 0.00 | 0.06 | 0.06 | 99 | 1012.8 |
| 20260831110516 | 59 | 0.0 | 3.0 | 0.00 | 0.06 | 0.06 | 99 | 1012.9 | |
| 20260831110016 | 59 | 0.0 | 0.0 | 0.00 | 0.06 | 0.06 | 100 | 1012.7 | |
| 20260831105516 | 59 | 0.0 | 1.0 | 0.00 | 0.06 | 0.06 | 100 | 1012.7 | |
| 20260831105016 | 58 | 0.0 | 2.0 | 0.00 | 0.06 | 0.06 | 100 | 1012.6 | |
| 20260831104516 | 58 | 0.0 | 2.0 | 0.00 | 0.06 | 0.06 | 100 | 1012.4 | |
| 20260831104016 | 58 | 0.0 | 1.0 | 0.01 | 0.06 | 0.06 | 100 | 1012.4 | |
| 20260831103516 | 58 | 0.0 | 0.0 | 0.01 | 0.06 | 0.06 | 100 | 1012.4 | |
| 20260831103016 | 58 | 0.0 | 0.0 | 0.01 | 0.06 | 0.06 | 100 | 1012.4 | |
| 20260831102516 | 58 | 0.0 | 0.0 | 0.01 | 0.06 | 0.06 | 99 | 1012.3 | |
| 20260831102016 | 58 | 0.0 | 0.0 | 0.01 | 0.06 | 0.06 | 99 | 1012.3 | |
| 20260831101516 | 58 | 0.0 | 0.0 | 0.01 | 0.06 | 0.06 | 99 | 1012.2 | |
| 20260831101016 | 59 | 0.0 | 1.0 | 0.01 | 0.06 | 0.06 | 99 | 1012.2 | |
| 20260831100516 | 59 | 0.0 | 0.0 | 0.01 | 0.06 | 0.06 | 99 | 1012.2 | |
| 20260831100016 | 59 | 0.0 | 0.0 | 0.01 | 0.06 | 0.06 | 99 | 1012.2 | |
| 20260831095516 | 59 | 0.0 | 1.0 | 0.01 | 0.06 | 0.06 | 99 | 1012.2 | |
| 20260831095016 | 59 | 0.0 | 0.0 | 0.01 | 0.06 | 0.06 | 99 | 1012.2 | |
| 20260831094516 | 59 | 0.0 | 1.0 | 0.01 | 0.06 | 0.06 | 99 | 1012.2 | |
| 20260831094016 | 59 | 0.0 | 0.0 | 0.00 | 0.05 | 0.05 | 99 | 1012.1 | |
| 20260831093516 | 59 | 0.0 | 0.0 | 0.00 | 0.05 | 0.05 | 99 | 1011.9 | |
| 20260831093016 | 59 | 0.0 | 0.0 | 0.00 | 0.05 | 0.05 | 100 | 1011.9 | |
| 20260831092516 | 60 | 0.0 | 0.0 | 0.00 | 0.05 | 0.05 | 100 | 1011.9 | |
| 20260831092016 | 60 | 0.0 | 0.0 | 0.00 | 0.05 | 0.05 | 100 | 1011.9 | |
| 20260831091516 | 60 | 0.0 | 2.0 | 0.00 | 0.05 | 0.05 | 100 | 1011.7 | |
| 20260831091016 | 60 | 0.0 | 0.0 | 0.00 | 0.05 | 0.05 | 100 | 1011.6 | |
| 20260831090516 | 60 | 0.0 | 0.0 | 0.00 | 0.05 | 0.05 | 100 | 1011.6 | |
| 20260831090016 | 60 | 0.0 | 0.0 | 0.00 | 0.05 | 0.05 | 100 | 1011.4 | |
| 20260831085516 | 60 | 0.0 | 0.0 | 0.00 | 0.05 | 0.05 | 100 | 1011.4 | |
| 20260831085016 | 60 | 0.0 | 0.0 | 0.00 | 0.05 | 0.05 | 100 | 1011.5 | |
| 20260831084516 | 60 | 0.0 | 0.0 | 0.00 | 0.05 | 0.05 | 100 | 1011.5 | |
| 20260831084016 | 60 | 0.0 | 0.0 | 0.00 | 0.05 | 0.05 | 100 | 1011.6 | |
| 20260831083516 | 60 | 0.0 | 0.0 | 0.00 | 0.05 | 0.05 | 100 | 1011.7 | |
| 20260831083016 | 60 | 0.0 | 0.0 | 0.00 | 0.05 | 0.05 | 100 | 1011.7 | |
| 20260831082516 | 60 | 0.0 | 0.0 | 0.00 | 0.05 | 0.05 | 100 | 1011.6 | |
| 20260831082016 | 60 | 0.0 | 0.0 | 0.00 | 0.05 | 0.05 | 100 | 1011.5 | |
| 20260831081516 | 61 | 0.0 | 1.0 | 0.00 | 0.05 | 0.05 | 100 | 1011.5 | |
| 20260831081016 | 61 | 0.0 | 1.0 | 0.00 | 0.05 | 0.05 | 100 | 1011.2 | |
| 20260831080516 | 61 | 0.0 | 1.0 | 0.00 | 0.05 | 0.05 | 100 | 1010.9 | |
| 20260831080016 | 61 | 0.0 | 1.0 | 0.00 | 0.05 | 0.05 | 100 | 1011.1 | |
| 20260831075516 | 61 | 0.0 | 0.0 | 0.00 | 0.05 | 0.05 | 100 | 1011.2 | |
| 20260831075016 | 61 | 0.0 | 0.0 | 0.00 | 0.05 | 0.05 | 100 | 1011.3 | |
| 20260831074516 | 61 | 0.0 | 0.0 | 0.00 | 0.05 | 0.05 | 100 | 1011.4 | |
| 20260831074016 | 61 | 0.0 | 2.0 | 0.00 | 0.05 | 0.05 | 100 | 1011.5 | |
| 20260831073516 | 61 | 0.0 | 2.0 | 0.00 | 0.05 | 0.05 | 100 | 1011.5 | |
| 20260831073016 | 61 | 0.0 | 1.0 | 0.00 | 0.05 | 0.05 | 100 | 1011.3 | |
| 20260831072516 | 61 | 0.0 | 0.0 | 0.00 | 0.05 | 0.05 | 100 | 1011.2 | |
| 20260831072016 | 61 | 0.0 | 0.0 | 0.00 | 0.05 | 0.05 | 100 | 1011.0 | |
| 20260831071516 | 61 | 0.0 | 1.0 | 0.00 | 0.05 | 0.05 | 100 | 1010.9 | |
| 20260831071016 | 61 | 0.0 | 0.0 | 0.00 | 0.05 | 0.05 | 100 | 1011.1 | |
| 20260831070516 | 61 | 0.0 | 0.0 | 0.00 | 0.05 | 0.05 | 100 | 1011.1 | |
| 20260831070016 | 61 | 0.0 | 0.0 | 0.00 | 0.05 | 0.05 | 100 | 1011.2 | |
| 20260831065516 | 61 | 0.0 | 0.0 | 0.00 | 0.05 | 0.05 | 100 | 1010.9 | |
| 20260831065016 | 61 | 0.0 | 1.0 | 0.01 | 0.05 | 0.05 | 100 | 1011.0 | |
| 20260831064516 | 62 | 0.0 | 1.0 | 0.01 | 0.05 | 0.05 | 100 | 1011.0 | |
| 20260831064016 | 62 | 0.0 | 1.0 | 0.02 | 0.05 | 0.05 | 100 | 1011.0 | |
| 20260831063516 | 62 | 0.0 | 2.0 | 0.02 | 0.05 | 0.05 | 100 | 1011.1 | |
| 20260831063016 | 62 | 0.0 | 1.0 | 0.02 | 0.05 | 0.05 | 100 | 1011.1 | |
| 20260831062516 | 62 | 0.0 | 3.0 | 0.02 | 0.05 | 0.05 | 100 | 1011.0 | |
| 20260831062016 | 62 | 0.0 | 0.0 | 0.02 | 0.05 | 0.05 | 100 | 1011.0 | |
| 20260831061516 | 62 | 0.0 | 0.0 | 0.02 | 0.05 | 0.05 | 100 | 1010.7 | |
| 20260831061016 | 62 | 0.0 | 0.0 | 0.02 | 0.05 | 0.05 | 99 | 1010.7 | |
| 20260831060516 | 62 | 0.0 | 0.0 | 0.03 | 0.05 | 0.05 | 99 | 1010.7 | |
| 20260831060016 | 62 | 0.0 | 0.0 | 0.03 | 0.05 | 0.05 | 99 | 1010.6 | |
| 20260831055516 | 62 | 0.0 | 0.0 | 0.03 | 0.05 | 0.05 | 99 | 1010.7 | |
| 20260831055016 | 62 | 0.0 | 0.0 | 0.02 | 0.04 | 0.04 | 99 | 1010.5 | |
| 20260831054516 | 63 | 0.0 | 0.0 | 0.02 | 0.04 | 0.04 | 99 | 1010.5 | |
| 20260831054016 | 63 | 0.0 | 0.0 | 0.02 | 0.03 | 0.03 | 99 | 1010.7 | |
| 20260831053516 | 63 | 0.0 | 1.0 | 0.02 | 0.02 | 0.02 | 98 | 1010.8 | |
| 20260831053016 | 63 | 338 | 1.0 | 1.0 | 0.02 | 0.02 | 0.02 | 98 | 1011.0 |
| 20260831052516 | 63 | 0.0 | 3.0 | 0.02 | 0.02 | 0.02 | 98 | 1011.0 | |
| 20260831052016 | 63 | 0.0 | 0.0 | 0.02 | 0.02 | 0.02 | 98 | 1011.2 | |
| 20260831051516 | 63 | 0.0 | 1.0 | 0.02 | 0.02 | 0.02 | 98 | 1011.2 | |
| 20260831051016 | 64 | 0.0 | 1.0 | 0.02 | 0.02 | 0.02 | 98 | 1011.3 | |
| 20260831050516 | 64 | 0.0 | 1.0 | 0.02 | 0.02 | 0.02 | 98 | 1011.4 | |
| 20260831050016 | 64 | 0.0 | 1.0 | 0.02 | 0.02 | 0.02 | 98 | 1011.4 | |
| 20260831045516 | 64 | 0.0 | 1.0 | 0.02 | 0.02 | 0.02 | 98 | 1011.4 | |
| 20260831045016 | 64 | 0.0 | 1.0 | 0.02 | 0.02 | 0.02 | 98 | 1011.4 | |
| 20260831044516 | 64 | 0.0 | 0.0 | 0.02 | 0.02 | 0.02 | 98 | 1011.5 | |
| 20260831044016 | 65 | 0.0 | 0.0 | 0.02 | 0.02 | 0.02 | 98 | 1011.5 | |
| 20260831043516 | 65 | 0.0 | 0.0 | 0.01 | 0.01 | 0.01 | 97 | 1011.2 | |
| 20260831043016 | 65 | 0.0 | 1.0 | 0.01 | 0.01 | 0.01 | 98 | 1011.4 | |
| 20260831042516 | 65 | 0.0 | 1.0 | 0.01 | 0.01 | 0.01 | 97 | 1011.4 | |
| 20260831042016 | 65 | 0.0 | 2.0 | 0.01 | 0.01 | 0.01 | 96 | 1011.3 | |
| 20260831041516 | 65 | 0.0 | 1.0 | 0.01 | 0.01 | 0.01 | 96 | 1011.5 | |
| 20260831041016 | 65 | 0.0 | 2.0 | 0.01 | 0.01 | 0.01 | 95 | 1011.4 | |
| 20260831040516 | 65 | 0.0 | 3.0 | 0.00 | 0.00 | 0.00 | 95 | 1011.5 | |
| 20260831040016 | 65 | 293 | 1.0 | 7.0 | 0.00 | 0.00 | 0.00 | 95 | 1011.6 |
| 20260831035516 | 65 | 225 | 1.0 | 7.0 | 0.00 | 0.00 | 0.00 | 95 | 1011.5 |
| 20260831035016 | 65 | 293 | 1.0 | 4.0 | 0.00 | 0.00 | 0.00 | 94 | 1011.3 |
| 20260831034516 | 65 | 225 | 1.0 | 4.0 | 0.00 | 0.00 | 0.00 | 94 | 1011.4 |
| 20260831034016 | 65 | 203 | 1.0 | 4.0 | 0.00 | 0.00 | 0.00 | 94 | 1011.4 |
| 20260831033516 | 65 | 225 | 1.0 | 6.0 | 0.00 | 0.00 | 0.00 | 94 | 1011.3 |
| 20260831033016 | 65 | 0.0 | 2.0 | 0.00 | 0.00 | 0.00 | 95 | 1011.3 | |
| 20260831032516 | 65 | 0.0 | 4.0 | 0.00 | 0.00 | 0.00 | 95 | 1011.2 | |
| 20260831032016 | 65 | 0.0 | 1.0 | 0.00 | 0.00 | 0.00 | 95 | 1011.3 | |
| 20260831031516 | 65 | 0.0 | 2.0 | 0.00 | 0.00 | 0.00 | 95 | 1011.3 | |
| 20260831031016 | 65 | 0.0 | 2.0 | 0.00 | 0.00 | 0.00 | 95 | 1011.4 | |
| 20260831030516 | 65 | 0.0 | 1.0 | 0.00 | 0.00 | 0.00 | 95 | 1011.3 | |
| 20260831030016 | 65 | 0.0 | 2.0 | 0.00 | 0.00 | 0.00 | 95 | 1011.4 | |
| 20260831025517 | 65 | 0.0 | 3.0 | 0.00 | 0.00 | 0.00 | 95 | 1011.3 | |
| 20260831025016 | 65 | 225 | 1.0 | 4.0 | 0.00 | 0.00 | 0.00 | 95 | 1011.3 |
| 20260831024517 | 65 | 225 | 1.0 | 7.0 | 0.00 | 0.00 | 0.00 | 96 | 1011.5 |
| 20260831024016 | 65 | 0.0 | 4.0 | 0.00 | 0.00 | 0.00 | 96 | 1011.6 | |
| 20260831023516 | 65 | 0.0 | 3.0 | 0.00 | 0.00 | 0.00 | 96 | 1011.6 | |
| 20260831023016 | 65 | 0.0 | 4.0 | 0.00 | 0.00 | 0.00 | 95 | 1011.5 | |
| 20260831022517 | 65 | 0.0 | 4.0 | 0.00 | 0.00 | 0.00 | 95 | 1011.6 | |
| 20260831022016 | 65 | 225 | 1.0 | 6.0 | 0.00 | 0.00 | 0.00 | 95 | 1011.7 |
| 20260831021517 | 65 | 203 | 1.0 | 4.0 | 0.00 | 0.00 | 0.00 | 95 | 1011.8 |
| 20260831021017 | 65 | 0.0 | 3.0 | 0.00 | 0.00 | 0.00 | 95 | 1011.8 | |
| 20260831020516 | 65 | 0.0 | 2.0 | 0.00 | 0.00 | 0.00 | 95 | 1011.9 | |
| 20260831020017 | 65 | 0.0 | 3.0 | 0.00 | 0.00 | 0.00 | 96 | 1012.1 | |
| 20260831015516 | 65 | 0.0 | 2.0 | 0.00 | 0.00 | 0.00 | 96 | 1012.0 | |
| 20260831015016 | 65 | 0.0 | 1.0 | 0.00 | 0.00 | 0.00 | 96 | 1012.0 | |
| 20260831014516 | 65 | 0.0 | 3.0 | 0.00 | 0.00 | 0.00 | 96 | 1012.2 | |
| 20260831014016 | 65 | 0.0 | 1.0 | 0.00 | 0.00 | 0.00 | 96 | 1012.1 | |
| 20260831013516 | 65 | 0.0 | 1.0 | 0.00 | 0.00 | 0.00 | 96 | 1012.2 | |
| 20260831013017 | 65 | 0.0 | 1.0 | 0.00 | 0.00 | 0.00 | 96 | 1012.3 | |
| 20260831012517 | 65 | 0.0 | 1.0 | 0.00 | 0.00 | 0.00 | 95 | 1012.3 | |
| 20260831012016 | 66 | 0.0 | 2.0 | 0.00 | 0.00 | 0.00 | 95 | 1012.5 | |
| 20260831011516 | 66 | 0.0 | 0.0 | 0.00 | 0.00 | 0.00 | 95 | 1012.5 | |
| 20260831011016 | 66 | 0.0 | 1.0 | 0.00 | 0.00 | 0.00 | 94 | 1012.3 | |
| 20260831010517 | 66 | 0.0 | 1.0 | 0.00 | 0.00 | 0.00 | 94 | 1012.3 | |
| 20260831010016 | 66 | 0.0 | 0.0 | 0.00 | 0.00 | 0.00 | 93 | 1012.3 | |
| 20260831005516 | 66 | 0.0 | 1.0 | 0.00 | 0.00 | 0.00 | 93 | 1012.5 | |
| 20260831005016 | 67 | 0.0 | 0.0 | 0.00 | 0.00 | 0.00 | 92 | 1012.4 | |
| 20260831004516 | 67 | 0.0 | 0.0 | 0.00 | 0.00 | 0.00 | 91 | 1012.3 | |
| 20260831004016 | 67 | 0.0 | 1.0 | 0.00 | 0.00 | 0.00 | 90 | 1012.2 | |
| 20260831003516 | 67 | 0.0 | 6.0 | 0.00 | 0.00 | 0.00 | 89 | 1012.4 | |
| 20260831003016 | 68 | 0.0 | 2.0 | 0.00 | 0.00 | 0.00 | 89 | 1012.4 | |
| 20260831002517 | 68 | 0.0 | 4.0 | 0.00 | 0.00 | 0.00 | 88 | 1012.5 | |
| 20260831002017 | 68 | 248 | 2.0 | 8.0 | 0.00 | 0.00 | 0.00 | 87 | 1012.6 |
| 20260831001517 | 68 | 0.0 | 3.0 | 0.00 | 0.00 | 0.00 | 87 | 1012.6 | |
| 20260831001016 | 69 | 0.0 | 3.0 | 0.00 | 0.00 | 0.00 | 86 | 1012.6 | |
| 20260831000516 | 69 | 135 | 1.0 | 5.0 | 0.00 | 0.00 | 0.00 | 86 | 1012.7 |
| 20260831000016 | 69 | 225 | 1.0 | 3.0 | 0.00 | 0.00 | 0.00 | 86 | 1012.7 |
| 20260830235516 | 69 | 0.0 | 5.0 | 0.00 | 0.00 | 0.00 | 86 | 1012.7 | |
| 20260830235016 | 69 | 225 | 1.0 | 3.0 | 0.00 | 0.00 | 0.00 | 86 | 1012.8 |
| 20260830234516 | 69 | 113 | 1.0 | 4.0 | 0.00 | 0.00 | 0.00 | 85 | 1012.9 |
| 20260830234016 | 69 | 225 | 1.0 | 5.0 | 0.00 | 0.00 | 0.00 | 85 | 1012.9 |
| 20260830233516 | 69 | 113 | 1.0 | 6.0 | 0.00 | 0.00 | 0.00 | 85 | 1012.8 |
| 20260830233016 | 69 | 113 | 1.0 | 8.0 | 0.00 | 0.00 | 0.00 | 84 | 1012.9 |
| 20260830232517 | 69 | 90 | 1.0 | 6.0 | 0.00 | 0.00 | 0.00 | 84 | 1012.9 |
| 20260830232017 | 69 | 135 | 1.0 | 6.0 | 0.00 | 0.00 | 0.00 | 85 | 1012.9 |
| 20260830231516 | 69 | 180 | 1.0 | 3.0 | 0.00 | 0.00 | 0.00 | 85 | 1012.9 |
| 20260830231016 | 69 | 113 | 1.0 | 4.0 | 0.00 | 0.00 | 0.00 | 85 | 1012.8 |
| 20260830230516 | 69 | 0.0 | 4.0 | 0.00 | 0.00 | 0.00 | 85 | 1012.9 | |
| 20260830230016 | 69 | 0.0 | 3.0 | 0.00 | 0.00 | 0.00 | 84 | 1012.9 | |
| 20260830225517 | 69 | 0.0 | 2.0 | 0.00 | 0.00 | 0.00 | 84 | 1012.9 | |
| 20260830225016 | 69 | 0.0 | 1.0 | 0.00 | 0.00 | 0.00 | 84 | 1012.9 | |
| 20260830224516 | 70 | 113 | 1.0 | 4.0 | 0.00 | 0.00 | 0.00 | 84 | 1013.0 |
| 20260830224016 | 70 | 135 | 1.0 | 3.0 | 0.00 | 0.00 | 0.00 | 85 | 1013.0 |
| 20260830223516 | 70 | 0.0 | 3.0 | 0.00 | 0.00 | 0.00 | 85 | 1012.9 | |
| 20260830223016 | 70 | 225 | 1.0 | 4.0 | 0.00 | 0.00 | 0.00 | 84 | 1012.9 |
| 20260830222516 | 70 | 0.0 | 4.0 | 0.00 | 0.00 | 0.00 | 84 | 1012.9 | |
| 20260830222016 | 70 | 0.0 | 2.0 | 0.00 | 0.00 | 0.00 | 84 | 1013.0 | |
| 20260830221516 | 70 | 0.0 | 2.0 | 0.00 | 0.00 | 0.00 | 83 | 1013.0 | |
| 20260830221017 | 70 | 0.0 | 1.0 | 0.00 | 0.00 | 0.00 | 82 | 1013.0 | |
| 20260830220516 | 71 | 0.0 | 1.0 | 0.00 | 0.00 | 0.00 | 83 | 1013.0 | |
| 20260830220016 | 71 | 0.0 | 2.0 | 0.00 | 0.00 | 0.00 | 82 | 1012.9 | |
| 20260830215516 | 71 | 225 | 1.0 | 4.0 | 0.00 | 0.00 | 0.00 | 82 | 1012.9 |
| 20260830215016 | 71 | 0.0 | 2.0 | 0.00 | 0.00 | 0.00 | 83 | 1012.8 | |
| 20260830214516 | 71 | 0.0 | 2.0 | 0.00 | 0.00 | 0.00 | 83 | 1012.7 | |
| 20260830214016 | 71 | 0.0 | 2.0 | 0.00 | 0.00 | 0.00 | 83 | 1012.8 | |
| 20260830213516 | 71 | 0.0 | 1.0 | 0.00 | 0.00 | 0.00 | 83 | 1012.8 |